Voltar ao catálogo

STARLINK-30066

AtivoComunicaçõesVLEO
NORAD 56704·PAYLOAD·🇺🇸 United States

Lançado May 19, 2023 de Cape Canaveral Space Force Station

Loading…

Próximas Passagens (próximas 24 horas)

TLE

AtualizadoSource: CelesTrak SupGP

Época: Sep 15, 2026, 03:11 UTC

1 56704C 23067S   26258.13312500 -.00004765  00000+0 -17251-3 0  2588
2 56704  43.0027 280.9840 0001586 273.2708 139.9388 15.27591385    18

Acompanhe STARLINK-30066 em tempo real com AllMySat

Download on the App Store